OKEAN-0
1 25860U 99039A 11349.83548393 .00001014 00000-0 16174-3 0 4928
2 25860 097.9100 311.5599 0001732 086.6405 273.4999 14.74016228667416
NOAA-16
1 26536U 00055A 11348.61791251 -.00000068 00000-0 -11878-4 0 05453
2 26536 099.1206 022.6515 0009750 244.4830 115.5335 14.12683594578835
NOAA-17
1 27453U 02032A 11348.92742234 .00000288 00000-0 14211-3 0 05286
2 27453 098.3583 020.1409 0011563 345.3712 014.7138 14.24368462492386
NOAA-18
1 28654U 05018A 11348.78568651 .00000554 00000-0 33000-3 0 00031
2 28654 099.0213 300.5914 0013924 319.3304 040.6821 14.11575324338407
NOAA-19
1 33591U 09005A 11348.75209838 .00000500 00000-0 30080-3 0 01928
2 33591 098.8468 286.0251 0013958 182.6661 177.4446 14.11264295146858
HUBBLE
1 20580U 90037B 11347.17678168 .00003263 00000-0 23064-3 0 9042
2 20580 028.4717 286.8741 0003564 222.7757 137.2358 15.01987885986589
ISS
1 25544U 98067A 11349.94557278 .00016796 00000-0 22123-3 0 6310
2 25544 051.6451 326.3978 0024914 168.6872 288.3921 15.58214982749288
CO-58
1 28895U 05043F 11348.62751943 .00001378 00000-0 29345-3 0 00499
2 28895 097.9397 217.7814 0018010 018.2147 341.9677 14.60390463326577
FALCON
1 30776U 07006E 11348.93417935 .00007431 00000-0 49986-3 0 02496
2 30776 035.4349 327.1362 0002637 234.8572 125.1896 15.06141359262294
MAST
1 31126U 07012K 11349.52723426 .00000959 00000-0 22520-3 0 3331
2 31126 097.8826 006.3890 0093820 326.8290 032.7044 14.53964270247434
CAPE1
1 31130U 07012P 11348.92210731 .00001557 00000-0 36566-3 0 03452
2 31130 097.8872 002.3470 0101735 340.4936 019.2396 14.52675222246876
COMPASS
1 32787U 08021E 11348.66732285 .00003730 00000-0 46186-3 0 01728
2 32787 097.8279 048.9657 0014582 310.4610 049.5329 14.83249611196305
AAUSAT2
1 32788U 08021F 11348.87558604 .00004213 00000-0 51752-3 0 01635
2 32788 097.8285 049.4591 0014308 311.8685 048.1254 14.83507509196359
DO-64
1 32789U 08021G 11348.87507315 .00006406 00000-0 76503-3 0 01771
2 32789 097.8365 050.8645 0014474 307.0149 052.9704 14.84487902196371
CO-66
1 32791U 08021J 11349.46949033 .00002894 00000-0 36362-3 0 1650
2 32791 097.8283 049.6198 0015047 307.9596 052.0261 14.82803452196362
RS-30
1 32953U 08025A 11349.56913268 .00000010 00000-0 00000 0 0 3450
2 32953 082.5034 049.9478 0018489 355.0020 005.0877 12.43018344161625
TACSAT-3
1 35001U 09028A 11349.82348293 .00074321 00000-0 75920-3 0 7974
2 35001 040.4513 141.8005 0005287 105.8579 254.2827 15.64018873145344
PHARMSAT
1 35002U 09028B 11349.83812261 .00050830 00000-0 61798-3 0 7367
2 35002 040.4712 142.2485 0010870 141.7757 218.3837 15.59606034145342
HAWKSAT1
1 35003U 09028C 11276.79285837 .02274821 58283-2 19360-2 0 8114
2 35003 040.4398 174.3672 0011414 274.3918 085.3844 16.13812532134570
CP6
1 35004U 09028D 11247.64656856 .16152067 73217-5 10011-2 0 7842
2 35004 040.4403 342.9642 0002956 038.0069 322.2231 16.41039951130139
METEOR-M
1 35865U 09049A 11349.70867547 .00000031 00000-0 34095-4 0 9822
2 35865 098.6827 042.2529 0001771 217.3214 142.7841 14.21851207116386
RS-38
1 35869U 09049E 11349.61523802 .00000121 00000-0 74640-4 0 9706
2 35869 098.6792 042.1822 0003966 221.1162 138.9726 14.22044289116383
ARISSAT1
1 37772U 98067CK 11349.78566644 .00402193 75018-4 10403-2 0 4102
2 37772 051.6343 316.9837 0008591 123.8765 312.8303 15.94498668 20970
SRMSAT
1 37839U 11058B 11347.46882072 .00000619 00000-0 19019-3 0 00516
2 37839 019.9591 049.3605 0019241 327.1509 032.7697 14.12005612008821
JUGNU
1 37841U 11058D 11348.47284851 .00000264 00000-0 00000-0 0 00481
2 37841 019.9701 044.5172 0011918 313.2184 046.7163 14.10098656008956
RAX-2
1 37853U 11061D 11348.97707453 .00004727 00000-0 38930-3 0 00452
2 37853 101.7040 300.1986 0253463 158.2468 202.9720 14.78206784007023
AUBIESAT
1 37854U 11061E 11348.97076575 .00005386 00000-0 43553-3 0 00490
2 37854 101.7074 300.2253 0255367 157.7228 203.5291 14.78432477007000
HRBE
1 37855U 11061F 11349.85157742 .00004692 00000-0 38215-3 0 448
2 37855 101.7081 301.5043 0254897 155.2214 206.1479 14.78388838 7137
